Regional Weather Roundup
Issued by NWS State College, PA

Home | Current Version | Previous Version | Text Only | Print | Product List | Glossary Off
Versions: 1 2 3 4 5 6 7 8 9 10 11 12 13 14 15 16 17 18 19 20 21 22 23 24 25 26 27 28 29 30 31 32 33 34 35 36 37 38 39 40 41 42 43 44 45 46 47 48 49 50

000
ASUS41 KCTP 050510
RWRCTP

REGIONAL WEATHER ROUNDUP
NATIONAL WEATHER SERVICE STATE COLLEGE PA
100 AM EDT SAT SEP 05 2015

Note: "fair" indicates few or no clouds below 12,000 feet with no
significant weather and/or obstructions to visibility.

* = STATION THAT DOES NOT REPORT PRECIPITATION /E.G. RAIN...SNOW...ETC/
    THUNDER OR FOG.

PAZ002>004-007>009-013>016-020>023-029>032-050600-
WESTERN PENNSYLVANIA

CITY           SKY/WX    TMP DP  RH WIND       PRES   REMARKS
ERIE           PTCLDY    70  62  76 SE3       30.10R
MEADVILLE      PTCLDY    67  62  84 CALM      30.14F
FRANKLIN*      PTCLDY    64  61  88 E8        30.16F
NEW CASTLE     FAIR      67  67 100 CALM      30.14R FOG
BEAVER COUNTY  NOT AVBL
BUTLER*        MOCLDY    66  63  88 E5        30.15S
PITTSBURGH INT MOCLDY    72  64  76 SE7       30.12S
PITTSBURGH     PTCLDY    71  62  73 CALM      30.12F HAZE
INDIANA*       MOCLDY    68  66  94 E6        30.18F
LATROBE        NOT AVBL
WASHINGTON CO* PTCLDY    64  63  94 CALM      30.13F
$$

PAZ004>006-010>012-017>019-024>028-033>037-041-042-045-046-049>053-050600-
CENTRAL PENNSYLVANIA

CITY           SKY/WX    TMP DP  RH WIND       PRES   REMARKS
BRADFORD       PTCLDY    62  60  93 SE5       30.20S
DUBOIS         PTCLDY    68  64  87 E6        30.17S FOG
CLEARFIELD     PTCLDY    67  64  90 N6        30.19R
JOHNSTOWN      PTCLDY    68  62  81 SE5       30.21R
ALTOONA        MOCLDY    72  66  81 VRB3      30.19F
STATE COLLEGE  PTCLDY    73  68  82 SE3       30.18S
WILLIAMSPORT   CLOUDY    75  67  76 NE10      30.16S
SELINSGROVE    MOCLDY    75  67  76 S6        30.19R
FT INDIANTOWN  MOCLDY    71  67  86 E2        30.20S
CAPITAL CITY   MOCLDY    74  66  76 SE8       30.18S
HARRISBURG     MOCLDY    75  66  73 SE8       30.17S
YORK           MOCLDY    71  68  90 E6        30.18S
$$

PAZ038>040-043-044-047-048-054-055-060>062-067>071-050600-
EASTERN PENNSYLVANIA

CITY           SKY/WX    TMP DP  RH WIND       PRES   REMARKS
SCRANTON       PTCLDY    72  65  78 NE3       30.21S
MOUNT POCONO   CLOUDY    66  64  93 S7        30.26S FOG
ALLENTOWN      PTCLDY    71  63  75 SE6       30.21S
QUAKERTOWN*    CLEAR     68  64  88 CALM      30.22S
READING        CLEAR     71  64  78 E6        30.19S
LANCASTER      CLOUDY    71  66  84 E5        30.19S
COATESVILLE    CLOUDY    72  66  83 E7        30.21S
POTTSTOWN      CLOUDY    69  66  90 NE6       30.22S
BLUE BELL      PTCLDY    72  66  83 E3        30.20S
DOYLESTOWN     CLEAR     66  64  93 CALM      30.20F
WILLOW GROVE   NOT AVBL
NORTH PHILA    MOCLDY    73  63  70 E7        30.21S
PHILADELPHIA   MOCLDY    73  65  75 E10       30.19S
$$


USA.gov is the U.S. government's official web portal to all federal, state and local government web resources and services.